When you browse on this site, cookies collect data to enhance your experience and personalize the content and advertising you see.
Visit our Privacy Policy to learn more. By continuing to use the site, you agree to this use of cookies and data.
  • In Hungary
  • List of Countries
  • For 7 days
  • Water Temperature
  • Satellite Maps
  • Weather Map
  • News
  • Weather Widgets
  • user-avatar
    Login

    Hourly Weather Santee

    Today, 27 June, Thursday

    Time Temperature Precipitation Wind Pressure Humidity
    00:00 +19°C° 0 mm 1 mps 750 mmHg 83%
    01:00 +16°C° 0 mm 0 mps 750 mmHg 84%
    02:00 +16°C° 0 mm 0 mps 750 mmHg 84%
    03:00 +16°C° 0 mm 0 mps 750 mmHg 85%
    04:00 +16°C° 0 mm 0 mps 750 mmHg 85%
    05:00 +17°C° 0 mm 0 mps 750 mmHg 80%
    06:00 +18°C° 0 mm 0 mps 751 mmHg 75%
    07:00 +20°C° 0 mm 0 mps 751 mmHg 70%
    08:00 +24°C° 0 mm 1 mps 751 mmHg 63%
    09:00 +25°C° 0 mm 2 mps 751 mmHg 55%
    10:00 +27°C° 0 mm 3 mps 751 mmHg 48%
    11:00 +28°C° 0 mm 3 mps 751 mmHg 46%
    12:00 +29°C° 0 mm 4 mps 751 mmHg 43%
    13:00 +29°C° 0 mm 4 mps 751 mmHg 41%
    14:00 +29°C° 0 mm 4 mps 750 mmHg 42%
    15:00 +28°C° 0 mm 3 mps 750 mmHg 43%
    16:00 +28°C° 0 mm 3 mps 750 mmHg 44%
    17:00 +26°C° 0 mm 2 mps 750 mmHg 49%
    18:00 +25°C° 0 mm 2 mps 750 mmHg 55%
    19:00 +23°C° 0 mm 1 mps 750 mmHg 60%
    20:00 +23°C° 0 mm 1 mps 750 mmHg 63%
    21:00 +22°C° 0 mm 1 mps 750 mmHg 67%
    22:00 +19°C° 0 mm 0 mps 750 mmHg 70%
    23:00 +19°C° 0 mm 0 mps 750 mmHg 72%

    Tomorrow, 28 June, Friday

    Time Temperature Precipitation Wind Pressure Humidity
    00:00 +18°C° 0 mm 0 mps 750 mmHg 73%
    01:00 +18°C° 0 mm 0 mps 750 mmHg 75%
    02:00 +17°C° 0 mm 0 mps 750 mmHg 75%
    03:00 +17°C° 0 mm 0 mps 750 mmHg 75%
    04:00 +17°C° 0 mm 0 mps 750 mmHg 75%
    05:00 +19°C° 0 mm 0 mps 750 mmHg 67%
    06:00 +21°C° 0 mm 0 mps 750 mmHg 58%
    07:00 +23°C° 0 mm 0 mps 750 mmHg 50%
    08:00 +26°C° 0 mm 1 mps 750 mmHg 44%
    09:00 +28°C° 0 mm 2 mps 750 mmHg 39%
    10:00 +30°C° 0 mm 3 mps 751 mmHg 33%
    11:00 +30°C° 0 mm 3 mps 750 mmHg 33%
    12:00 +31°C° 0 mm 3 mps 750 mmHg 32%
    13:00 +32°C° 0 mm 4 mps 750 mmHg 31%
    14:00 +32°C° 0 mm 4 mps 750 mmHg 32%
    15:00 +30°C° 0 mm 3 mps 749 mmHg 32%
    16:00 +29°C° 0 mm 3 mps 749 mmHg 33%
    17:00 +28°C° 0 mm 3 mps 749 mmHg 39%
    18:00 +26°C° 0 mm 2 mps 750 mmHg 45%
    19:00 +24°C° 0 mm 2 mps 750 mmHg 51%
    20:00 +23°C° 0 mm 1 mps 750 mmHg 54%
    21:00 +23°C° 0 mm 1 mps 750 mmHg 58%
    22:00 +22°C° 0 mm 1 mps 750 mmHg 61%
    23:00 +22°C° 0 mm 1 mps 750 mmHg 60%

    Day after tomorrow, 29 June, Saturday

    Time Temperature Precipitation Wind Pressure Humidity
    00:00 +22°C° 0 mm 1 mps 750 mmHg 59%
    01:00 +22°C° 0 mm 1 mps 750 mmHg 59%
    02:00 +19°C° 0 mm 0 mps 750 mmHg 57%
    03:00 +19°C° 0 mm 0 mps 750 mmHg 56%
    04:00 +19°C° 0 mm 0 mps 750 mmHg 55%
    05:00 +20°C° 0 mm 0 mps 750 mmHg 49%
    06:00 +22°C° 0 mm 0 mps 750 mmHg 43%
    07:00 +24°C° 0 mm 0 mps 751 mmHg 38%
    08:00 +28°C° 0 mm 1 mps 751 mmHg 31%
    09:00 +30°C° 0 mm 2 mps 751 mmHg 24%
    10:00 +33°C° 0 mm 3 mps 751 mmHg 18%
    11:00 +33°C° 0 mm 3 mps 750 mmHg 20%
    12:00 +31°C° 0 mm 3 mps 750 mmHg 23%
    13:00 +31°C° 0 mm 3 mps 750 mmHg 25%
    14:00 +30°C° 0 mm 3 mps 750 mmHg 25%
    15:00 +30°C° 0 mm 3 mps 750 mmHg 25%
    16:00 +30°C° 0 mm 3 mps 749 mmHg 25%
    17:00 +28°C° 0 mm 2 mps 750 mmHg 30%
    18:00 +27°C° 0 mm 2 mps 750 mmHg 34%
    19:00 +26°C° 0 mm 1 mps 750 mmHg 39%
    20:00 +25°C° 0 mm 1 mps 750 mmHg 44%
    21:00 +24°C° 0 mm 1 mps 751 mmHg 49%
    22:00 +21°C° 0 mm 0 mps 751 mmHg 54%
    23:00 +21°C° 0 mm 0 mps 751 mmHg 51%

    30 June, Sunday

    Time Temperature Precipitation Wind Pressure Humidity
    00:00 +21°C° 0 mm 0 mps 750 mmHg 48%
    01:00 +21°C° 0 mm 0 mps 750 mmHg 45%
    02:00 +20°C° 0 mm 0 mps 750 mmHg 47%
    03:00 +22°C° 0 mm 1 mps 750 mmHg 48%
    04:00 +21°C° 0 mm 1 mps 750 mmHg 49%
    05:00 +23°C° 0 mm 1 mps 750 mmHg 44%
    06:00 +23°C° 0 mm 0 mps 750 mmHg 39%
    07:00 +24°C° 0 mm 0 mps 751 mmHg 34%
    08:00 +28°C° 0 mm 1 mps 751 mmHg 30%
    09:00 +30°C° 0 mm 2 mps 751 mmHg 26%
    10:00 +33°C° 0 mm 3 mps 751 mmHg 22%
    11:00 +33°C° 0 mm 3 mps 750 mmHg 22%
    12:00 +34°C° 0 mm 4 mps 750 mmHg 21%
    13:00 +35°C° 0 mm 4 mps 750 mmHg 20%
    14:00 +34°C° 0 mm 4 mps 749 mmHg 22%
    15:00 +33°C° 0 mm 4 mps 749 mmHg 24%
    16:00 +32°C° 0 mm 4 mps 749 mmHg 26%
    17:00 +29°C° 0 mm 3 mps 749 mmHg 32%
    18:00 +27°C° 0 mm 3 mps 749 mmHg 38%
    19:00 +26°C° 0 mm 2 mps 749 mmHg 43%
    20:00 +25°C° 0 mm 2 mps 750 mmHg 49%
    21:00 +24°C° 0 mm 1 mps 750 mmHg 54%
    22:00 +23°C° 0 mm 1 mps 750 mmHg 59%
    23:00 +22°C° 0 mm 1 mps 750 mmHg 60%

    1 July, Monday

    Time Temperature Precipitation Wind Pressure Humidity
    00:00 +22°C° 0 mm 1 mps 750 mmHg 61%
    01:00 +22°C° 0 mm 1 mps 749 mmHg 61%
    02:00 +21°C° 0 mm 1 mps 749 mmHg 62%
    03:00 +21°C° 0 mm 1 mps 749 mmHg 62%
    04:00 +20°C° 0 mm 1 mps 749 mmHg 63%
    05:00 +22°C° 0 mm 1 mps 749 mmHg 57%
    06:00 +23°C° 0 mm 1 mps 750 mmHg 52%
    07:00 +25°C° 0 mm 1 mps 750 mmHg 47%
    08:00 +27°C° 0 mm 2 mps 750 mmHg 41%
    09:00 +28°C° 0 mm 2 mps 750 mmHg 36%
    10:00 +30°C° 0 mm 3 mps 750 mmHg 31%
    11:00 +30°C° 0 mm 3 mps 749 mmHg 29%
    12:00 +31°C° 0 mm 3 mps 749 mmHg 28%
    13:00 +33°C° 0 mm 4 mps 749 mmHg 27%
    14:00 +32°C° 0 mm 4 mps 749 mmHg 28%
    15:00 +31°C° 0 mm 3 mps 748 mmHg 29%
    16:00 +30°C° 0 mm 3 mps 748 mmHg 30%
    17:00 +28°C° 0 mm 3 mps 748 mmHg 38%
    18:00 +26°C° 0 mm 2 mps 748 mmHg 47%
    19:00 +24°C° 0 mm 1 mps 748 mmHg 55%
    20:00 +23°C° 0 mm 1 mps 748 mmHg 59%
    21:00 +22°C° 0 mm 1 mps 749 mmHg 63%
    22:00 +21°C° 0 mm 1 mps 749 mmHg 68%
    23:00 +21°C° 0 mm 1 mps 749 mmHg 69%

    2 July, Tuesday

    Time Temperature Precipitation Wind Pressure Humidity
    00:00 +20°C° 0 mm 1 mps 748 mmHg 69%
    01:00 +20°C° 0 mm 1 mps 748 mmHg 70%
    02:00 +20°C° 0 mm 1 mps 748 mmHg 70%
    03:00 +20°C° 0 mm 1 mps 748 mmHg 70%
    04:00 +19°C° 0 mm 1 mps 748 mmHg 70%
    05:00 +21°C° 0 mm 1 mps 748 mmHg 64%
    06:00 +23°C° 0 mm 1 mps 749 mmHg 58%
    07:00 +24°C° 0 mm 1 mps 749 mmHg 53%
    08:00 +26°C° 0 mm 2 mps 749 mmHg 48%
    09:00 +27°C° 0 mm 2 mps 749 mmHg 42%
    10:00 +29°C° 0 mm 3 mps 749 mmHg 37%
    11:00 +30°C° 0 mm 3 mps 749 mmHg 35%
    12:00 +30°C° 0 mm 4 mps 748 mmHg 34%
    13:00 +32°C° 0 mm 4 mps 748 mmHg 32%
    14:00 +30°C° 0 mm 4 mps 748 mmHg 33%
    15:00 +30°C° 0 mm 4 mps 747 mmHg 35%
    16:00 +29°C° 0 mm 3 mps 747 mmHg 36%
    17:00 +27°C° 0 mm 3 mps 747 mmHg 44%
    18:00 +25°C° 0 mm 2 mps 747 mmHg 52%
    19:00 +23°C° 0 mm 2 mps 747 mmHg 61%
    20:00 +23°C° 0 mm 1 mps 747 mmHg 65%
    21:00 +22°C° 0 mm 1 mps 748 mmHg 69%
    22:00 +21°C° 0 mm 1 mps 748 mmHg 74%
    23:00 +21°C° 0 mm 1 mps 748 mmHg 76%
    Show more